Home > Weather > Miramichi > Past weeks

Flag for Canada Past Weather in Miramichi, New Brunswick, Canada — Yesterday and Last 2 Weeks

Now
75 °F

Partly sunny.


Feels Like: 77 °F
Forecast: 61 / 80 °F
Wind: 12 mph from Southwest

Location: Bathurst Airport

Current Time: Jun 28, 2016 at 7:41:17 PM

Latest Report: Jun 28, 2016 at 7:00 PM


Visibility: 15 mi

Pressure: 29.90 "Hg

Humidity: 69%

Dew Point: 64 °F

Location of MiramichiLocation

Past Weather in Miramichi — Graph

°F

Miramichi Temperature Yesterday

Maximum temperature yesterday: 90 °F (at 1:00 PM)
Minimum temperature yesterday: 55 °F (at 6:00 AM)
Average temperature yesterday: 76 °F

High & Low Weather Summary for the Past Weeks

 TemperatureHumidityPressure
High91 °F (Jun 20, 2:00 PM)100% (Jun 13, 6:00 PM)30.16 "Hg (Jun 13, 6:00 PM)
Low39 °F (Jun 17, 5:00 AM)20% (Jun 18, 3:00 PM)29.51 "Hg (Jun 13, 6:00 PM)
Average63 °F64%29.85 "Hg
* Reported Jun 13 6:00 PM — Jun 28 6:00 PM, Miramichi, Weather by CustomWeather, © 2016

Note: Actual official high and low records may vary slightly from our data, if they occured in-between our weather recording intervals... More about our weather records

Advertising

Miramichi Weather History for the Previous 24 Hours

Scroll right to see more
 ConditionsComfort  
Time TempWeatherWind HumidityBarometerVisibility
6:00 PM
Tue, Jun 28
77 °FBroken clouds.12 mph65%29.89 "Hg15 mi
5:00 PM77 °FPartly sunny.10 mph65%29.87 "Hg15 mi
4:00 PM81 °FScattered showers. Scattered clouds.16 mph58%29.85 "Hg15 mi
3:00 PM77 °FPartly sunny.16 mph65%29.84 "Hg15 mi
2:00 PM79 °FPartly sunny.14 mph65%29.84 "Hg15 mi
1:00 PM79 °FPartly sunny.10 mph61%29.85 "Hg15 mi
12:00 PM79 °FPassing clouds.13 mph61%29.83 "Hg15 mi
11:00 AM79 °FPassing clouds.15 mph54%29.84 "Hg15 mi
10:00 AM73 °FPassing clouds.9 mph69%29.84 "Hg15 mi
9:00 AM68 °FPassing clouds.8 mph73%29.84 "Hg15 mi
8:00 AM64 °FPassing clouds.10 mph73%29.85 "Hg15 mi
7:00 AM61 °FScattered clouds.10 mph77%29.85 "Hg15 mi
6:00 AM63 °FPassing clouds.14 mph73%29.85 "Hg15 mi
5:00 AM66 °FSprinkles. Passing clouds.10 mph56%29.84 "Hg10 mi
4:00 AM68 °FSprinkles. Overcast.8 mph56%29.82 "Hg12 mi
3:00 AM70 °FOvercast.10 mph57%29.81 "Hg15 mi
2:00 AM72 °FOvercast.12 mph57%29.82 "Hg15 mi
1:00 AM73 °FOvercast.12 mph57%29.81 "Hg15 mi
12:00 AM72 °FOvercast.6 mph61%29.82 "Hg15 mi
11:00 PM
Mon, Jun 27
75 °FOvercast.9 mph57%29.82 "Hg15 mi
10:00 PM81 °FMostly cloudy.10 mph48%29.81 "Hg15 mi
9:00 PM82 °FBroken clouds.13 mph45%29.80 "Hg15 mi
8:00 PM84 °FBroken clouds.12 mph43%29.80 "Hg12 mi
7:00 PM86 °FBroken clouds.10 mph40%29.79 "Hg12 mi
Weather by CustomWeather, © 2016

See weather overviewHow to use our weather pages